DW8306 Weather Reports


time (UTC)temp
C
wind
direction
speed
KPH
gust
KPH
rain 1hr
cm
rain 24hr
cm
rain mn
cm
humidity
%
barometer
mb
20260906121546 23 292 0.0 0.0 0.00 0.46 0.00 96 1013.1
20260906120043 23 283 0.0 3.2 0.00 0.46 0.00 95 1012.9
20260906114542 23 280 0.0 0.0 0.00 0.46 0.00 95 1012.7
20260906113046 23 315 0.0 1.6 0.00 0.46 0.00 96 1012.7
20260906111540 23 325 0.0 0.0 0.00 0.46 0.00 96 1012.7
20260906110038 23 325 0.0 0.0 0.00 0.46 0.00 96 1012.4
20260906104537 23 359 0.0 0.0 0.00 0.46 0.00 96 1012.3
20260906103036 23 325 0.0 0.0 0.00 0.46 0.00 96 1012.4
20260906101535 23 359 0.0 0.0 0.00 0.46 0.00 95 1012.3
20260906100034 23 359 0.0 0.0 0.00 0.46 0.00 95 1012.1
20260906094535 23 325 0.0 3.2 0.00 0.46 0.00 96 1012.1
20260906093032 23 322 0.0 0.0 0.00 0.46 0.00 95 1012.1
20260906091534 23 321 0.0 0.0 0.00 0.46 0.00 95 1012.0
20260906090030 23 321 0.0 0.0 0.00 0.46 0.00 95 1012.0
20260906084530 23 322 0.0 0.0 0.00 0.46 0.00 95 1011.8
20260906083032 23 321 0.0 0.0 0.00 0.46 0.00 95 1011.9
20260906081534 23 322 0.0 1.6 0.00 0.46 0.00 95 1011.9
20260906080026 23 292 0.0 6.4 0.00 0.46 0.00 95 1011.9
20260906074525 23 314 0.0 0.0 0.00 0.46 0.00 95 1011.8
20260906073024 23 314 0.0 1.6 0.00 0.46 0.00 95 1011.9
20260906071524 24 359 0.0 1.6 0.00 0.46 0.00 95 1011.9
20260906070022 24 4 0.0 0.0 0.00 0.46 0.00 95 1011.8
20260906064526 24 4 0.0 1.6 0.00 0.46 0.00 95 1011.6
20260906063020 23 4 0.0 0.0 0.00 0.46 0.00 95 1011.7
20260906061518 23 4 0.0 0.0 0.00 0.46 0.00 95 1011.6
20260906060016 23 4 0.0 0.0 0.00 0.46 0.00 95 1011.4
20260906054516 23 4 0.0 0.0 0.00 0.46 0.00 94 1011.4
20260906053013 23 4 0.0 1.6 0.00 0.46 0.00 95 1011.4
20260906051510 24 4 0.0 1.6 0.00 0.46 0.00 94 1011.5
20260906050021 24 4 0.0 3.2 0.00 0.46 0.46 95 1011.2
20260906044507 24 4 0.0 1.6 0.00 0.46 0.46 95 1011.3
20260906043009 24 4 0.0 0.0 0.00 0.46 0.46 95 1011.2
20260906041505 24 4 0.0 0.0 0.03 0.46 0.46 94 1011.0
20260906040006 24 4 0.0 0.0 0.03 0.46 0.46 94 1010.9
20260906034504 24 4 0.0 0.0 0.03 0.46 0.46 94 1010.8
20260906033002 24 4 0.0 0.0 0.03 0.46 0.46 94 1010.9
20260906031503 24 4 0.0 0.0 0.00 0.43 0.43 94 1011.0
20260906030004 24 4 0.0 0.0 0.00 0.43 0.43 93 1010.9
20260906024501 24 4 0.0 1.6 0.00 0.43 0.43 94 1010.8
20260906023121 24 4 0.0 0.0 0.00 0.43 0.43 93 1010.8
20260906021612 24 4 0.0 0.0 0.00 0.43 0.43 93 1010.6
20260906014609 24 349 0.0 6.4 0.00 0.43 0.43 92 1010.7
20260906013057 25 83 0.0 1.6 0.00 0.43 0.43 92 1010.7
20260906011556 25 93 0.0 1.6 0.13 0.43 0.43 92 1011.2
20260906010054 25 124 0.0 8.0 0.43 0.43 0.43 91 1011.4
20260906004556 25 278 1.6 8.0 0.43 0.43 0.43 91 1011.5
20260906003103 25 146 0.0 6.4 0.43 0.43 0.43 89 1011.9
20260906001552 26 198 0.0 9.7 0.30 0.30 0.30 85 1012.8
20260906000052 28 268 0.0 9.7 0.00 0.00 0.00 76 1013.3
20260905234558 28 35 3.2 14.5 0.00 0.00 0.00 76 1012.2
20260905233051 29 97 0.0 8.0 0.00 0.00 0.00 74 1011.4
20260905231551 30 209 1.6 12.9 0.00 0.00 0.00 72 1011.5
20260905230052 32 120 4.8 14.5 0.00 0.00 0.00 67 1010.7
20260905224549 33 215 0.0 1.6 0.00 0.00 0.00 62 1010.3
20260905223050 34 135 0.0 3.2 0.00 0.00 0.00 59 1009.7
20260905221548 35 233 0.0 1.6 0.00 0.00 0.00 59 1009.6
20260905220046 35 84 1.6 11.3 0.00 0.00 0.00 56 1009.6
20260905214552 36 157 0.0 8.0 0.00 0.00 0.00 58 1009.7
20260905213046 36 39 1.6 11.3 0.00 0.00 0.00 56 1009.8
20260905211543 35 73 1.6 9.7 0.00 0.00 0.00 58 1009.6
20260905210045 35 91 6.4 14.5 0.00 0.00 0.00 56 1009.9
20260905204540 36 120 1.6 11.3 0.00 0.00 0.00 56 1010.0
20260905203040 34 64 1.6 12.9 0.00 0.00 0.00 60 1010.3
20260905201539 34 58 6.4 12.9 0.00 0.00 0.00 60 1010.6
20260905200042 34 237 1.6 11.3 0.00 0.00 0.00 64 1010.7
20260905194532 35 57 4.8 17.7 0.00 0.00 0.00 62 1010.9
20260905193032 35 87 8.0 16.1 0.00 0.00 0.00 57 1011.0
20260905191529 35 85 6.4 16.1 0.00 0.00 0.00 56 1011.1
20260905190026 35 38 4.8 11.3 0.00 0.00 0.00 54 1011.2
20260905184532 35 124 1.6 9.7 0.00 0.00 0.00 58 1011.5
20260905183028 35 97 6.4 17.7 0.00 0.00 0.00 55 1011.6
20260905181521 36 83 1.6 9.7 0.00 0.00 0.00 55 1012.0
20260905180017 35 44 4.8 12.9 0.00 0.00 0.00 56 1012.0
20260905174528 33 104 1.6 12.9 0.00 0.00 0.00 62 1012.4
20260905173015 34 10 0.0 8.0 0.00 0.00 0.00 62 1012.7
20260905171511 34 59 3.2 12.9 0.00 0.00 0.00 61 1012.8
20260905170009 34 335 3.2 14.5 0.00 0.00 0.00 59 1012.9
20260905164506 33 167 3.2 14.5 0.00 0.00 0.00 60 1013.1
20260905163007 33 49 4.8 12.9 0.00 0.00 0.00 63 1013.1
20260905161600 33 90 1.6 8.0 0.00 0.00 0.00 67 1013.2
20260905160059 32 268 1.6 6.4 0.00 0.00 0.00 69 1013.2
20260905154556 31 53 0.0 0.0 0.00 0.00 0.00 73 1013.2
20260905153054 30 60 0.0 0.0 0.00 0.00 0.00 76 1013.4
20260905151547 29 266 0.0 0.0 0.00 0.00 0.00 78 1013.3
20260905150044 28 273 0.0 0.0 0.00 0.00 0.00 79 1013.3
20260905144549 28 222 0.0 0.0 0.00 0.00 0.00 81 1013.4
20260905143038 28 276 0.0 0.0 0.00 0.00 0.00 82 1013.3
20260905141601 27 4 0.0 0.0 0.00 0.00 0.00 83 1013.4
20260905140033 27 4 0.0 0.0 0.00 0.00 0.00 86 1013.4
20260905134532 26 4 0.0 0.0 0.00 0.00 0.00 89 1013.5
20260905133040 25 4 0.0 0.0 0.00 0.00 0.00 90 1013.4
20260905131542 25 4 0.0 0.0 0.00 0.00 0.00 92 1013.2
20260905130023 25 4 0.0 0.0 0.00 0.00 0.00 92 1013.1
20260905124520 24 4 0.0 0.0 0.00 0.00 0.00 92 1013.2
20260905123018 24 4 0.0 0.0 0.00 0.00 0.00 92 1013.0